TimeEDT,TemperatureF,Dew PointF,Humidity,Sea Level PressureIn,VisibilityMPH,Wind Direction,Wind SpeedMPH,Gust SpeedMPH,PrecipitationIn,Events,Conditions,WindDirDegrees,DateUTC
3:51 AM,62.1,57.9,86,29.90,10.0,WSW,3.5,-,N/A,,Clear,250,2013-09-05 07:51:00
4:51 AM,61.0,57.0,87,29.89,10.0,WSW,5.8,-,N/A,,Clear,240,2013-09-05 08:51:00
5:51 AM,62.1,57.0,84,29.91,10.0,West,6.9,-,N/A,,Scattered Clouds,260,2013-09-05 09:51:00
6:51 AM,63.0,57.9,84,29.91,10.0,West,8.1,-,N/A,,Mostly Cloudy,260,2013-09-05 10:51:00
7:51 AM,66.0,57.9,75,29.92,10.0,West,6.9,-,N/A,,Mostly Cloudy,280,2013-09-05 11:51:00
8:51 AM,68.0,57.9,70,29.93,10.0,WNW,6.9,-,N/A,,Mostly Cloudy,300,2013-09-05 12:51:00
9:51 AM,66.0,60.1,81,29.96,10.0,NNW,10.4,-,0.00,Rain,Light Rain,330,2013-09-05 13:51:00
10:51 AM,70.0,62.1,76,29.94,10.0,NW,6.9,-,0.00,,Mostly Cloudy,310,2013-09-05 14:51:00
11:51 AM,72.0,60.1,66,29.95,10.0,North,16.1,-,N/A,,Mostly Cloudy,360,2013-09-05 15:51:00
12:51 PM,73.9,55.0,52,29.97,10.0,North,17.3,-,N/A,,Mostly Cloudy,10,2013-09-05 16:51:00
1:51 PM,71.1,55.0,57,29.97,10.0,NE,10.4,-,N/A,,Mostly Cloudy,50,2013-09-05 17:51:00
2:51 PM,70.0,51.1,51,29.98,10.0,North,10.4,-,N/A,,Overcast,350,2013-09-05 18:51:00
3:51 PM,71.1,54.0,55,29.98,10.0,NE,5.8,-,N/A,,Overcast,40,2013-09-05 19:51:00
4:51 PM,69.1,51.1,53,30.00,10.0,North,11.5,-,N/A,,Overcast,10,2013-09-05 20:51:00
5:51 PM,69.1,48.9,49,30.02,10.0,NNE,10.4,-,N/A,,Mostly Cloudy,20,2013-09-05 21:51:00
6:51 PM,64.9,55.9,73,30.04,10.0,ENE,5.8,-,N/A,,Mostly Cloudy,60,2013-09-05 22:51:00
7:51 PM,64.0,57.0,78,30.06,10.0,East,5.8,-,N/A,,Scattered Clouds,90,2013-09-05 23:51:00
8:51 PM,62.1,55.9,80,30.09,10.0,NE,4.6,-,N/A,,Mostly Cloudy,50,2013-09-06 00:51:00
9:51 PM,61.0,55.0,81,30.11,10.0,Calm,Calm,-,N/A,,Clear,0,2013-09-06 01:51:00
10:51 PM,59.0,55.0,87,30.13,10.0,Calm,Calm,-,N/A,,Clear,0,2013-09-06 02:51:00
11:51 PM,57.0,55.0,93,30.14,10.0,NW,4.6,-,N/A,,Clear,310,2013-09-06 03:51:00